NORTHEAST SUFFOLK  -  Winter Weather Advisory Winter Weather Advisory     Winter Weather Advisory Winter Weather Advisory        NORTHERN NASSAU  -  Winter Weather Advisory Winter Weather Advisory        NORTHWEST SUFFOLK  -  Winter Weather Advisory Winter Weather Advisory     Winter Weather Advisory Winter Weather Advisory        SOUTHEAST SUFFOLK  -  Winter Weather Advisory Winter Weather Advisory     Winter Weather Advisory Winter Weather Advisory        SOUTHERN NASSAU  -  Winter Weather Advisory Winter Weather Advisory        SOUTHWEST SUFFOLK  -  Winter Weather Advisory Winter Weather Advisory     Winter Weather Advisory Winter Weather Advisory      

Active alerts

Northern Nassau
  Details for Northern Nassau Winter Weather Advisory
Southern Nassau
  Details for Southern Nassau Winter Weather Advisory
Northwest Suffolk
  Details for Northwest Suffolk Winter Weather Advisory  +1 additional alert
Southwest Suffolk
  Details for Southwest Suffolk Winter Weather Advisory  +1 additional alert
Northeast Suffolk
  Details for Northeast Suffolk Winter Weather Advisory  +1 additional alert
Southeast Suffolk
  Details for Southeast Suffolk Winter Weather Advisory  +1 additional alert


WXM80 ListenWXM80 Stop

You find our weather info also at:

UK Metoffice

WeatherCloud

Weather Underground

Northeastern Weather Network

AWEKAS

Citizen Weather Observer Program (CWOP)

HAMweather, WeatherForYou, PWS Weather


Weather Underground History page Text

Daily Summary for February 29, 2016 Units:  English    Metric   Both
« Previous Day
Next Day »
Daily Weekly Monthly Yearly Custom
  High: Low: Average:
Temperature: 58.4 °F 43.4 °F 49.9 °F
Dew Point: 48.8 °F 31.6 °F 39.7 °F
Humidity: 92 % 50 % 69 %
Wind Speed: 10.9 mph 0.0 mph 5 mph
Wind Gust: 20.7 mph - -
Wind:- - SW
Pressure: 29.90 in 29.57 in -
Precipitation: 0.05 in    
Historical Graphs
 
 
Tabular Data for February 29, 2016
Time Temperature Dew Point Pressure Wind Wind Speed Wind Gust Humidity Rainfall Rate (Hourly)
00:03 46.2 °F 38.7 °F 29.73 in South 6.1 mph 8.1 mph 75 % 0.00 in
00:08 46.0 °F 38.9 °F 29.72 in South 4.0 mph 12.7 mph 76 % 0.00 in
00:13 45.8 °F 39.0 °F 29.72 in SSW 6.1 mph 9.2 mph 77 % 0.00 in
00:18 45.6 °F 39.1 °F 29.72 in South 4.6 mph 11.5 mph 78 % 0.00 in
00:23 45.5 °F 39.0 °F 29.72 in South 4.0 mph 8.1 mph 78 % 0.00 in
00:28 45.4 °F 38.9 °F 29.71 in SSW 3.9 mph 9.2 mph 78 % 0.00 in
00:33 45.3 °F 38.8 °F 29.71 in SSW 3.8 mph 10.4 mph 78 % 0.00 in
00:38 45.4 °F 38.9 °F 29.70 in SSW 5.6 mph 10.4 mph 78 % 0.00 in
00:43 45.5 °F 39.0 °F 29.70 in SE 5.6 mph 11.5 mph 78 % 0.00 in
00:48 45.6 °F 39.1 °F 29.71 in SSW 3.7 mph 10.0 mph 78 % 0.00 in
00:54 45.6 °F 39.1 °F 29.70 in WSW 5.2 mph 10.4 mph 78 % 0.00 in
00:59 45.6 °F 39.1 °F 29.70 in South 4.1 mph 8.1 mph 78 % 0.00 in
01:04 45.8 °F 39.3 °F 29.70 in South 3.9 mph 8.1 mph 78 % 0.00 in
01:09 45.8 °F 39.3 °F 29.70 in South 3.6 mph 4.6 mph 78 % 0.00 in
01:14 45.7 °F 39.2 °F 29.69 in South 4.6 mph 11.5 mph 78 % 0.00 in
01:19 45.8 °F 39.3 °F 29.69 in SSW 3.0 mph 8.1 mph 78 % 0.00 in
01:24 45.8 °F 39.0 °F 29.69 in SSW 4.7 mph 9.2 mph 77 % 0.00 in
01:29 45.7 °F 38.9 °F 29.69 in SSW 5.0 mph 6.9 mph 77 % 0.00 in
01:34 45.7 °F 38.9 °F 29.68 in SSW 4.2 mph 8.1 mph 77 % 0.00 in
01:39 45.8 °F 39.0 °F 29.68 in South 4.8 mph 8.1 mph 77 % 0.00 in
01:45 45.8 °F 39.0 °F 29.68 in SSW 3.3 mph 6.0 mph 77 % 0.00 in
01:50 45.9 °F 39.1 °F 29.68 in SW 4.3 mph 9.0 mph 77 % 0.00 in
01:55 45.9 °F 38.8 °F 29.68 in SW 3.8 mph 6.9 mph 76 % 0.00 in
02:00 45.9 °F 38.8 °F 29.67 in West 2.5 mph 4.6 mph 76 % 0.00 in
02:05 46.0 °F 38.9 °F 29.68 in SSW 3.4 mph 5.0 mph 76 % 0.00 in
02:10 46.0 °F 38.9 °F 29.67 in SW 5.0 mph 10.4 mph 76 % 0.00 in
02:15 46.0 °F 38.9 °F 29.67 in WSW 0.6 mph 3.5 mph 76 % 0.00 in
02:20 45.9 °F 38.8 °F 29.67 in SSE 0.4 mph 3.5 mph 76 % 0.00 in
02:25 45.9 °F 38.8 °F 29.66 in SSW 4.8 mph 10.4 mph 76 % 0.00 in
02:36 45.6 °F 38.5 °F 29.66 in Calm   1.2 mph 76 % 0.00 in
02:41 45.5 °F 38.7 °F 29.67 in WSW 3.4 mph 5.0 mph 77 % 0.00 in
02:46 45.4 °F 38.6 °F 29.66 in SSW 2.8 mph 4.6 mph 77 % 0.00 in
02:51 45.3 °F 38.5 °F 29.66 in SSW 1.5 mph 3.5 mph 77 % 0.00 in
02:56 45.2 °F 38.7 °F 29.65 in WSW 1.6 mph 4.0 mph 78 % 0.00 in
03:01 45.0 °F 38.6 °F 29.65 in South 1.9 mph 4.6 mph 78 % 0.00 in
03:06 44.9 °F 38.5 °F 29.65 in South 3.3 mph 3.5 mph 78 % 0.00 in
03:11 44.8 °F 38.7 °F 29.65 in SSW 3.5 mph 8.1 mph 79 % 0.00 in
03:16 44.7 °F 38.6 °F 29.65 in SSW 2.8 mph 4.0 mph 79 % 0.00 in
03:22 44.6 °F 38.8 °F 29.64 in SSW 5.1 mph 6.9 mph 80 % 0.00 in
03:27 44.5 °F 38.7 °F 29.64 in SSW 2.9 mph 6.9 mph 80 % 0.00 in
03:32 44.5 °F 38.7 °F 29.64 in South 2.4 mph 6.0 mph 80 % 0.00 in
03:37 44.5 °F 38.7 °F 29.63 in South 3.6 mph 8.1 mph 80 % 0.00 in
03:42 44.5 °F 38.7 °F 29.64 in SSW 4.6 mph 6.9 mph 80 % 0.00 in
03:47 44.5 °F 38.7 °F 29.63 in SSW 3.5 mph 6.0 mph 80 % 0.00 in
03:52 44.4 °F 38.6 °F 29.63 in South 4.0 mph 6.0 mph 80 % 0.00 in
03:57 44.4 °F 38.9 °F 29.63 in South 3.0 mph 5.0 mph 81 % 0.00 in
04:02 44.4 °F 38.9 °F 29.62 in SSW 2.4 mph 4.6 mph 81 % 0.00 in
04:07 44.3 °F 38.8 °F 29.62 in SSW 4.8 mph 7.0 mph 81 % 0.00 in
04:13 44.3 °F 38.8 °F 29.62 in South 2.9 mph 10.4 mph 81 % 0.00 in
04:18 44.2 °F 38.7 °F 29.62 in South 4.7 mph 6.0 mph 81 % 0.00 in
04:23 44.2 °F 38.7 °F 29.62 in South 4.2 mph 8.1 mph 81 % 0.00 in
04:28 44.2 °F 38.7 °F 29.62 in South 4.1 mph 6.9 mph 81 % 0.00 in
04:33 44.2 °F 38.7 °F 29.61 in SSW 3.1 mph 5.8 mph 81 % 0.00 in
04:38 44.3 °F 38.5 °F 29.61 in SSW 4.1 mph 5.8 mph 80 % 0.00 in
04:43 44.3 °F 38.5 °F 29.61 in SSW 4.3 mph 8.1 mph 80 % 0.00 in
04:48 44.3 °F 38.2 °F 29.61 in South 4.4 mph 5.0 mph 79 % 0.00 in
04:53 44.2 °F 38.4 °F 29.61 in SSW 3.0 mph 5.8 mph 80 % 0.00 in
04:58 44.2 °F 38.4 °F 29.61 in South 3.4 mph 8.1 mph 80 % 0.00 in
05:04 44.2 °F 38.4 °F 29.61 in SSW 4.4 mph 6.9 mph 80 % 0.00 in
05:09 44.2 °F 38.4 °F 29.60 in South 2.0 mph 4.6 mph 80 % 0.00 in
05:14 44.2 °F 38.4 °F 29.60 in SSW 3.9 mph 5.8 mph 80 % 0.00 in
05:19 44.1 °F 38.6 °F 29.60 in South 4.3 mph 11.0 mph 81 % 0.00 in
05:24 43.9 °F 38.8 °F 29.60 in SSW 4.7 mph 6.9 mph 82 % 0.00 in
05:29 43.8 °F 38.7 °F 29.60 in South 3.7 mph 8.0 mph 82 % 0.00 in
05:34 43.7 °F 38.9 °F 29.59 in South 5.4 mph 9.2 mph 83 % 0.00 in
05:39 43.6 °F 38.8 °F 29.59 in WSW 4.5 mph 7.0 mph 83 % 0.00 in
05:44 43.6 °F 38.8 °F 29.60 in South 1.8 mph 3.5 mph 83 % 0.00 in
05:49 43.5 °F 38.7 °F 29.59 in South 4.6 mph 8.1 mph 83 % 0.00 in
05:55 43.5 °F 39.0 °F 29.59 in SSW 4.8 mph 8.1 mph 84 % 0.00 in
06:00 43.5 °F 39.0 °F 29.59 in SSW 5.8 mph 9.0 mph 84 % 0.00 in
06:05 43.4 °F 38.6 °F 29.59 in South 6.0 mph 11.5 mph 83 % 0.00 in
06:10 43.4 °F 38.9 °F 29.59 in SSW 7.4 mph 13.8 mph 84 % 0.00 in
06:15 43.4 °F 38.9 °F 29.59 in SSW 4.9 mph 8.1 mph 84 % 0.00 in
06:20 43.5 °F 39.0 °F 29.59 in SSW 3.9 mph 8.1 mph 84 % 0.00 in
06:25 43.5 °F 39.3 °F 29.59 in SW 4.7 mph 9.2 mph 85 % 0.00 in
06:35 43.5 °F 39.3 °F 29.59 in South 6.3 mph 12.0 mph 85 % 0.00 in
06:40 43.6 °F 39.4 °F 29.59 in SSW 5.7 mph 11.5 mph 85 % 0.00 in
06:46 43.6 °F 39.4 °F 29.58 in SSW 6.2 mph 16.1 mph 85 % 0.00 in
06:51 43.7 °F 39.5 °F 29.58 in SW 5.3 mph 10.4 mph 85 % 0.00 in
06:56 43.8 °F 39.6 °F 29.58 in South 5.8 mph 10.4 mph 85 % 0.00 in
07:01 44.0 °F 39.8 °F 29.59 in South 4.6 mph 6.9 mph 85 % 0.00 in
07:06 44.2 °F 40.0 °F 29.58 in SSW 4.2 mph 6.9 mph 85 % 0.00 in
07:11 44.4 °F 39.9 °F 29.58 in South 4.4 mph 7.0 mph 84 % 0.00 in
07:16 44.6 °F 39.8 °F 29.58 in SSW 4.4 mph 12.0 mph 83 % 0.00 in
07:21 45.0 °F 40.1 °F 29.58 in SSW 5.2 mph 9.2 mph 83 % 0.00 in
07:26 45.4 °F 40.2 °F 29.58 in South 4.4 mph 8.0 mph 82 % 0.00 in
07:31 45.7 °F 40.2 °F 29.58 in South 5.1 mph 6.9 mph 81 % 0.00 in
07:37 46.1 °F 40.6 °F 29.58 in SW 3.3 mph 7.0 mph 81 % 0.00 in
07:42 46.4 °F 40.6 °F 29.58 in SSW 9.7 mph 13.8 mph 80 % 0.00 in
07:47 46.8 °F 40.6 °F 29.58 in South 8.3 mph 12.7 mph 79 % 0.00 in
07:52 47.1 °F 40.6 °F 29.58 in South 4.8 mph 7.0 mph 78 % 0.00 in
07:57 47.4 °F 40.9 °F 29.58 in SSW 6.4 mph 10.4 mph 78 % 0.00 in
08:02 47.9 °F 41.0 °F 29.58 in South 6.4 mph 11.5 mph 77 % 0.00 in
08:12 48.9 °F 41.3 °F 29.58 in SSW 8.3 mph 15.0 mph 75 % 0.00 in
08:17 49.2 °F 40.9 °F 29.59 in SW 7.5 mph 13.8 mph 73 % 0.00 in
08:22 49.6 °F 40.9 °F 29.59 in SSW 4.3 mph 13.8 mph 72 % 0.00 in
08:28 49.9 °F 40.9 °F 29.58 in SSW 8.7 mph 13.8 mph 71 % 0.00 in
08:33 50.3 °F 40.9 °F 29.58 in SW 5.3 mph 13.8 mph 70 % 0.00 in
08:38 50.6 °F 41.2 °F 29.58 in South 4.5 mph 8.1 mph 70 % 0.00 in
08:43 50.9 °F 41.1 °F 29.58 in WSW 5.1 mph 11.5 mph 69 % 0.00 in
08:48 51.4 °F 41.2 °F 29.58 in WSW 7.8 mph 17.3 mph 68 % 0.00 in
08:53 51.8 °F 41.2 °F 29.58 in SSE 6.9 mph 11.5 mph 67 % 0.00 in
09:03 52.4 °F 41.4 °F 29.58 in SW 9.5 mph 13.8 mph 66 % 0.00 in
09:08 52.8 °F 41.7 °F 29.58 in SSW 5.4 mph 8.1 mph 66 % 0.00 in
09:13 53.3 °F 41.4 °F 29.58 in South 4.7 mph 11.5 mph 64 % 0.00 in
09:19 53.8 °F 41.9 °F 29.58 in SSW 5.8 mph 8.1 mph 64 % 0.00 in
09:24 54.2 °F 41.5 °F 29.58 in SW 4.9 mph 15.0 mph 62 % 0.00 in
09:29 54.6 °F 41.4 °F 29.58 in SSW 8.1 mph 13.8 mph 61 % 0.00 in
09:34 55.2 °F 42.0 °F 29.59 in SSW 6.5 mph 15.0 mph 61 % 0.00 in
09:39 55.7 °F 42.0 °F 29.58 in SW 7.3 mph 12.7 mph 60 % 0.00 in
09:44 55.8 °F 41.7 °F 29.58 in SW 5.9 mph 9.2 mph 59 % 0.00 in
09:49 56.0 °F 41.4 °F 29.58 in WSW 8.9 mph 12.7 mph 58 % 0.00 in
09:54 56.5 °F 41.0 °F 29.58 in SW 6.8 mph 11.5 mph 56 % 0.00 in
09:59 56.8 °F 41.3 °F 29.58 in SSE 3.2 mph 4.6 mph 56 % 0.00 in
10:04 56.8 °F 40.8 °F 29.58 in SW 9.5 mph 19.6 mph 55 % 0.00 in
10:10 56.5 °F 40.5 °F 29.58 in WSW 9.8 mph 14.0 mph 55 % 0.00 in
10:20 55.6 °F 39.7 °F 29.58 in SW 5.9 mph 10.4 mph 55 % 0.00 in
10:25 55.4 °F 40.0 °F 29.58 in SSW 6.9 mph 9.2 mph 56 % 0.00 in
10:30 55.3 °F 39.4 °F 29.58 in South 5.7 mph 6.9 mph 55 % 0.00 in
10:35 55.3 °F 39.9 °F 29.58 in SSW 9.5 mph 12.0 mph 56 % 0.00 in
10:40 55.3 °F 38.9 °F 29.58 in SSW 8.5 mph 19.6 mph 54 % 0.00 in
10:45 55.1 °F 39.7 °F 29.58 in SW 2.9 mph 8.1 mph 56 % 0.00 in
10:50 55.1 °F 39.2 °F 29.58 in SW 8.3 mph 15.0 mph 55 % 0.00 in
10:55 55.0 °F 39.1 °F 29.58 in WSW 3.3 mph 6.9 mph 55 % 0.00 in
11:01 54.9 °F 39.0 °F 29.58 in WSW 5.7 mph 8.1 mph 55 % 0.00 in
11:11 54.6 °F 38.7 °F 29.59 in West 5.6 mph 11.5 mph 55 % 0.00 in
11:16 54.4 °F 38.6 °F 29.60 in WSW 8.6 mph 13.0 mph 55 % 0.00 in
11:21 54.1 °F 38.7 °F 29.60 in West 10.9 mph 19.6 mph 56 % 0.00 in
11:26 53.6 °F 38.7 °F 29.60 in SW 10.6 mph 19.6 mph 57 % 0.00 in
11:36 52.5 °F 41.5 °F 29.60 in WSW 4.8 mph 15.0 mph 66 % 0.00 in
11:41 51.8 °F 42.3 °F 29.60 in West 6.8 mph 13.8 mph 70 % 0.00 in
11:46 50.8 °F 42.8 °F 29.60 in West 4.9 mph 12.0 mph 74 % 0.00 in
11:52 50.1 °F 43.2 °F 29.60 in WNW 4.1 mph 10.4 mph 77 % 0.00 in
11:57 49.6 °F 43.7 °F 29.60 in SSW 2.9 mph 5.8 mph 80 % 0.00 in
12:02 49.3 °F 44.0 °F 29.60 in West 4.5 mph 6.9 mph 82 % 0.01 in
12:07 49.1 °F 44.5 °F 29.60 in WSW 3.4 mph 5.0 mph 84 % 0.01 in
12:12 49.0 °F 44.7 °F 29.60 in SSW 3.3 mph 4.6 mph 85 % 0.02 in
12:17 48.9 °F 45.2 °F 29.60 in SSW 6.6 mph 9.2 mph 87 % 0.03 in
12:22 48.8 °F 45.4 °F 29.59 in SSW 5.5 mph 8.1 mph 88 % 0.03 in
12:27 48.9 °F 45.5 °F 29.59 in SSW 4.3 mph 6.9 mph 88 % 0.04 in
12:32 49.0 °F 45.9 °F 29.58 in SW 3.5 mph 5.8 mph 89 % 0.04 in
12:37 49.1 °F 46.3 °F 29.58 in SSW 2.2 mph 4.0 mph 90 % 0.04 in
12:43 49.4 °F 46.9 °F 29.58 in SSW 5.4 mph 9.2 mph 91 % 0.05 in
12:48 49.8 °F 47.6 °F 29.58 in SW 6.0 mph 10.0 mph 92 % 0.05 in
12:58 50.5 °F 48.0 °F 29.58 in SW 5.2 mph 10.0 mph 91 % 0.04 in
13:03 50.8 °F 48.3 °F 29.57 in SW 6.2 mph 10.0 mph 91 % 0.04 in
13:08 51.1 °F 48.3 °F 29.57 in WSW 6.0 mph 9.0 mph 90 % 0.04 in
13:13 51.3 °F 48.2 °F 29.57 in WSW 5.7 mph 9.2 mph 89 % 0.03 in
13:18 51.5 °F 48.1 °F 29.58 in SW 6.2 mph 11.5 mph 88 % 0.02 in
13:23 51.6 °F 47.9 °F 29.58 in South 5.0 mph 9.2 mph 87 % 0.01 in
13:28 51.8 °F 47.7 °F 29.58 in SSW 4.4 mph 6.9 mph 86 % 0.01 in
13:34 52.3 °F 48.2 °F 29.58 in SW 4.8 mph 12.7 mph 86 % 0.01 in
13:39 53.2 °F 48.8 °F 29.58 in SW 5.3 mph 11.5 mph 85 % 0.00 in
13:44 53.8 °F 48.1 °F 29.58 in SSW 4.9 mph 13.0 mph 81 % 0.00 in
13:49 54.4 °F 48.7 °F 29.58 in WSW 4.1 mph 10.4 mph 81 % 0.00 in
13:54 55.0 °F 48.3 °F 29.58 in WSW 7.4 mph 11.5 mph 78 % 0.00 in
13:59 55.6 °F 48.2 °F 29.58 in SW 5.1 mph 11.5 mph 76 % 0.00 in
14:04 56.1 °F 48.6 °F 29.58 in WSW 6.1 mph 11.5 mph 76 % 0.00 in
14:09 56.6 °F 48.0 °F 29.59 in WSW 5.8 mph 16.1 mph 73 % 0.00 in
14:14 57.0 °F 47.7 °F 29.59 in SSW 5.5 mph 10.4 mph 71 % 0.00 in
14:19 57.3 °F 48.0 °F 29.59 in SW 8.0 mph 8.0 mph 71 % 0.00 in
14:25 57.6 °F 47.5 °F 29.59 in West 9.1 mph 12.0 mph 69 % 0.00 in
14:30 57.9 °F 47.4 °F 29.59 in SW 4.4 mph 16.1 mph 68 % 0.00 in
14:35 58.1 °F 47.2 °F 29.60 in WSW 6.3 mph 15.0 mph 67 % 0.00 in
14:40 58.1 °F 46.4 °F 29.60 in WNW 7.4 mph 11.5 mph 65 % 0.00 in
14:45 57.7 °F 46.0 °F 29.61 in SW 7.8 mph 12.7 mph 65 % 0.00 in
14:50 57.5 °F 46.2 °F 29.61 in SW 8.4 mph 19.6 mph 66 % 0.00 in
14:55 57.5 °F 46.2 °F 29.61 in SW 9.5 mph 15.0 mph 66 % 0.00 in
15:00 57.8 °F 46.5 °F 29.61 in NW 7.3 mph 10.4 mph 66 % 0.00 in
15:05 58.1 °F 46.4 °F 29.61 in WSW 7.9 mph 11.5 mph 65 % 0.00 in
15:10 58.3 °F 46.2 °F 29.62 in WSW 7.7 mph 13.8 mph 64 % 0.00 in
15:16 58.4 °F 46.7 °F 29.62 in West 1.7 mph 11.5 mph 65 % 0.00 in
15:21 58.3 °F 46.2 °F 29.61 in WNW 2.6 mph 11.5 mph 64 % 0.00 in
15:26 58.1 °F 45.6 °F 29.62 in West 5.7 mph 9.2 mph 63 % 0.00 in
15:36 57.7 °F 46.0 °F 29.62 in West 1.9 mph 6.9 mph 65 % 0.00 in
15:41 57.6 °F 46.3 °F 29.62 in WSW 2.8 mph 4.6 mph 66 % 0.00 in
15:46 57.5 °F 46.2 °F 29.64 in NW 1.3 mph 4.0 mph 66 % 0.00 in
15:51 57.4 °F 45.7 °F 29.64 in WNW 5.0 mph 7.0 mph 65 % 0.00 in
15:57 57.3 °F 45.6 °F 29.64 in West 3.8 mph 10.4 mph 65 % 0.00 in
16:02 57.1 °F 45.4 °F 29.64 in WNW 2.3 mph 8.0 mph 65 % 0.00 in
16:07 56.9 °F 45.3 °F 29.64 in WSW 3.0 mph 5.8 mph 65 % 0.00 in
16:12 56.9 °F 45.3 °F 29.65 in WNW 4.5 mph 8.1 mph 65 % 0.00 in
16:17 56.8 °F 45.2 °F 29.65 in WSW 1.8 mph 6.0 mph 65 % 0.00 in
16:22 56.7 °F 44.2 °F 29.65 in WSW 3.0 mph 6.9 mph 63 % 0.00 in
16:27 56.6 °F 44.1 °F 29.65 in WSW 4.2 mph 5.8 mph 63 % 0.00 in
16:32 56.5 °F 44.5 °F 29.65 in NW 1.3 mph 7.0 mph 64 % 0.00 in
16:37 56.4 °F 43.5 °F 29.66 in WNW 3.2 mph 8.1 mph 62 % 0.00 in
16:42 56.3 °F 43.0 °F 29.66 in WNW 4.2 mph 8.1 mph 61 % 0.00 in
16:48 56.2 °F 42.9 °F 29.66 in SW 4.0 mph 4.6 mph 61 % 0.00 in
16:53 56.0 °F 42.3 °F 29.67 in WNW 2.6 mph 5.8 mph 60 % 0.00 in
16:58 55.9 °F 41.8 °F 29.67 in West 3.7 mph 4.6 mph 59 % 0.00 in
17:03 55.8 °F 42.1 °F 29.67 in WSW 3.3 mph 4.6 mph 60 % 0.00 in
17:08 55.6 °F 41.9 °F 29.67 in West 2.5 mph 3.5 mph 60 % 0.00 in
17:13 55.4 °F 41.3 °F 29.68 in West 5.3 mph 9.2 mph 59 % 0.00 in
17:18 55.2 °F 40.7 °F 29.68 in SW 4.1 mph 5.0 mph 58 % 0.00 in
17:23 55.1 °F 40.6 °F 29.69 in WSW 1.4 mph 3.5 mph 58 % 0.00 in
17:28 55.0 °F 40.9 °F 29.69 in SW 0.6 mph 2.3 mph 59 % 0.00 in
17:33 54.8 °F 39.8 °F 29.70 in West 2.4 mph 5.8 mph 57 % 0.00 in
17:39 54.7 °F 39.3 °F 29.70 in NW 2.2 mph 5.8 mph 56 % 0.00 in
17:56 54.4 °F 39.0 °F 29.72 in WSW 0.3 mph 9.2 mph 56 % 0.00 in
18:01 54.1 °F 38.7 °F 29.72 in WSW 0.5 mph 2.0 mph 56 % 0.00 in
18:06 53.8 °F 39.4 °F 29.73 in SW 3.9 mph 4.6 mph 58 % 0.00 in
18:11 53.5 °F 39.1 °F 29.73 in SW 0.6 mph 2.0 mph 58 % 0.00 in
18:16 53.3 °F 38.9 °F 29.73 in SW 0.2 mph 3.5 mph 58 % 0.00 in
18:21 53.0 °F 38.6 °F 29.74 in WSW 2.1 mph 6.9 mph 58 % 0.00 in
18:26 52.9 °F 38.5 °F 29.74 in WSW 3.3 mph 5.8 mph 58 % 0.00 in
18:32 52.8 °F 38.9 °F 29.75 in SW 1.9 mph 3.5 mph 59 % 0.00 in
18:37 52.7 °F 38.8 °F 29.75 in SW 0.5 mph 1.2 mph 59 % 0.00 in
18:42 52.6 °F 39.5 °F 29.76 in WSW 0.9 mph 2.3 mph 61 % 0.00 in
18:47 52.4 °F 38.9 °F 29.76 in SW 1.1 mph 2.3 mph 60 % 0.00 in
18:52 52.2 °F 38.3 °F 29.77 in West 3.7 mph 5.8 mph 59 % 0.00 in
18:57 52.0 °F 37.7 °F 29.77 in West 5.6 mph 8.1 mph 58 % 0.00 in
19:02 51.9 °F 36.7 °F 29.77 in WSW 5.9 mph 11.5 mph 56 % 0.00 in
19:07 51.9 °F 35.8 °F 29.78 in WSW 7.3 mph 15.0 mph 54 % 0.00 in
19:12 52.1 °F 35.9 °F 29.78 in West 9.4 mph 11.5 mph 54 % 0.00 in
19:17 52.2 °F 35.6 °F 29.79 in WNW 9.0 mph 12.7 mph 53 % 0.00 in
19:23 52.3 °F 35.2 °F 29.80 in WSW 4.8 mph 18.4 mph 52 % 0.00 in
19:28 52.3 °F 35.2 °F 29.80 in WSW 8.1 mph 20.7 mph 52 % 0.00 in
19:33 52.1 °F 35.0 °F 29.80 in SSW 5.5 mph 7.0 mph 52 % 0.00 in
19:38 52.0 °F 34.9 °F 29.81 in West 8.1 mph 16.1 mph 52 % 0.00 in
19:43 51.8 °F 34.7 °F 29.81 in West 4.9 mph 12.7 mph 52 % 0.00 in
19:48 51.6 °F 34.5 °F 29.81 in South 6.9 mph 15.0 mph 52 % 0.00 in
19:53 51.4 °F 34.3 °F 29.81 in WSW 7.8 mph 11.5 mph 52 % 0.00 in
19:58 51.2 °F 34.2 °F 29.81 in WSW 9.3 mph 16.1 mph 52 % 0.00 in
20:03 51.1 °F 34.1 °F 29.81 in SW 5.9 mph 13.8 mph 52 % 0.00 in
20:08 50.8 °F 33.3 °F 29.80 in WSW 7.9 mph 12.0 mph 51 % 0.00 in
20:14 50.6 °F 33.1 °F 29.80 in WSW 6.3 mph 8.1 mph 51 % 0.00 in
20:19 50.6 °F 33.1 °F 29.82 in SW 6.1 mph 10.4 mph 51 % 0.00 in
20:24 50.5 °F 33.0 °F 29.82 in West 6.2 mph 12.0 mph 51 % 0.00 in
20:29 50.4 °F 32.9 °F 29.82 in SW 3.8 mph 8.1 mph 51 % 0.00 in
20:34 50.3 °F 33.3 °F 29.83 in SW 8.7 mph 14.0 mph 52 % 0.00 in
20:39 50.2 °F 33.2 °F 29.83 in SW 6.4 mph 9.2 mph 52 % 0.00 in
20:44 50.1 °F 32.7 °F 29.83 in WSW 7.5 mph 19.6 mph 51 % 0.00 in
20:54 49.9 °F 32.5 °F 29.83 in SW 4.7 mph 7.0 mph 51 % 0.00 in
20:59 49.7 °F 31.8 °F 29.83 in SW 5.9 mph 9.2 mph 50 % 0.00 in
21:05 49.6 °F 31.7 °F 29.83 in SW 5.7 mph 8.1 mph 50 % 0.00 in
21:10 49.5 °F 31.6 °F 29.83 in SW 6.4 mph 9.2 mph 50 % 0.00 in
21:15 49.4 °F 32.0 °F 29.84 in SW 5.4 mph 11.5 mph 51 % 0.00 in
21:20 49.2 °F 31.8 °F 29.84 in WNW 5.2 mph 10.4 mph 51 % 0.00 in
21:25 49.1 °F 31.7 °F 29.84 in SW 5.8 mph 11.5 mph 51 % 0.00 in
21:30 49.0 °F 32.1 °F 29.85 in SW 4.3 mph 9.0 mph 52 % 0.00 in
21:35 48.9 °F 32.0 °F 29.85 in SW 5.5 mph 8.1 mph 52 % 0.00 in
21:40 48.7 °F 31.8 °F 29.85 in West 4.4 mph 13.8 mph 52 % 0.00 in
21:45 48.7 °F 32.3 °F 29.86 in SSW 4.2 mph 11.5 mph 53 % 0.00 in
21:50 48.6 °F 32.7 °F 29.86 in WSW 4.7 mph 7.0 mph 54 % 0.00 in
21:56 48.3 °F 32.4 °F 29.86 in SW 7.7 mph 9.2 mph 54 % 0.00 in
22:01 48.3 °F 32.4 °F 29.86 in WSW 5.2 mph 12.7 mph 54 % 0.00 in
22:06 48.3 °F 32.4 °F 29.86 in SW 6.1 mph 11.5 mph 54 % 0.00 in
22:11 48.2 °F 32.3 °F 29.86 in SW 4.1 mph 9.2 mph 54 % 0.00 in
22:16 48.2 °F 32.3 °F 29.87 in SW 4.4 mph 11.5 mph 54 % 0.00 in
22:21 48.0 °F 32.1 °F 29.87 in WSW 5.6 mph 11.5 mph 54 % 0.00 in
22:26 47.9 °F 32.0 °F 29.88 in WSW 5.5 mph 11.5 mph 54 % 0.00 in
22:31 47.9 °F 32.0 °F 29.88 in WNW 7.4 mph 17.3 mph 54 % 0.00 in
22:36 47.8 °F 32.4 °F 29.88 in WSW 8.2 mph 16.1 mph 55 % 0.00 in
22:41 47.7 °F 32.3 °F 29.88 in WSW 6.9 mph 13.8 mph 55 % 0.00 in
22:47 47.6 °F 32.7 °F 29.88 in SW 7.6 mph 16.1 mph 56 % 0.00 in
22:52 47.6 °F 32.7 °F 29.89 in West 5.7 mph 15.0 mph 56 % 0.00 in
22:57 47.5 °F 33.0 °F 29.89 in WSW 3.9 mph 11.5 mph 57 % 0.00 in
23:02 47.4 °F 32.9 °F 29.89 in SW 7.3 mph 12.7 mph 57 % 0.00 in
23:07 47.4 °F 32.9 °F 29.90 in SW 7.3 mph 11.5 mph 57 % 0.00 in
23:12 47.3 °F 32.8 °F 29.90 in SW 6.8 mph 11.5 mph 57 % 0.00 in
23:17 47.2 °F 33.2 °F 29.90 in WSW 6.8 mph 11.5 mph 58 % 0.00 in
23:22 47.2 °F 33.2 °F 29.89 in WSW 8.4 mph 14.0 mph 58 % 0.00 in
23:32 47.1 °F 33.1 °F 29.89 in SW 5.6 mph 10.4 mph 58 % 0.00 in
23:38 47.0 °F 33.0 °F 29.90 in SW 6.3 mph 13.0 mph 58 % 0.00 in
23:48 47.1 °F 32.6 °F 29.89 in SW 7.9 mph 12.7 mph 57 % 0.00 in
23:53 47.2 °F 32.7 °F 29.89 in SW 4.0 mph 8.1 mph 57 % 0.00 in
23:58 47.3 °F 32.4 °F 29.89 in SW 4.9 mph 13.0 mph 56 % 0.00 in
Crab Meadow Weather
Compliments of Weather Underground - 3 mb

Script developed by  Jim McMurry - jmcmurry@mwt.net Adapted for the template by  Wim van der Kuil - Leuven-Template.eu

Weather Terms: Freeze Warning - Widespread temperatures at or below 32°F during the growing season. A freeze may occur with or without frost. A hard freeze occurs with temperatures below 28°F. Growing season is based on the average date of first and last freeze at O'Hare. It begins April 17 and ends October 27.